FW0267 Weather Reports


time (UTC)temp
F
wind
direction
speed
knots
gust
knots
rain 1hr
in
rain 24hr
in
rain mn
in
humidity
%
barometer
mb
20260901135525 0 120 0.0 0.9 0.00 0.00 0.00 1018.4
20260901135023 0 138 0.0 0.9 0.00 0.00 0.00 1018.4
20260901134521 0 115 0.0 0.9 0.00 0.00 0.00 1018.4
20260901134021 0 128 0.0 0.9 0.00 0.00 0.00 1018.3
20260901133519 0 126 0.0 0.0 0.00 0.00 0.00 1018.5
20260901133018 0 126 0.0 1.7 0.00 0.00 0.00 1018.5
20260901132516 0 126 0.0 1.7 0.00 0.00 0.00 1018.6
20260901132014 0 125 0.0 0.9 0.00 0.00 0.00 1018.5
20260901131520 0 119 0.0 0.9 0.00 0.00 0.00 1018.6
20260901131012 0 113 0.0 0.9 0.00 0.00 0.00 1018.6
20260901130511 0 128 0.0 0.9 0.00 0.00 0.00 1018.6
20260901130009 0 126 0.0 0.9 0.00 0.00 0.00 1018.7
20260901125507 0 128 0.0 0.9 0.00 0.00 0.00 1018.7
20260901125006 0 130 0.0 0.0 0.00 0.00 0.00 1018.7
20260901124505 0 123 0.0 0.0 0.00 0.00 0.00 1018.7
20260901124004 0 123 0.0 0.0 0.00 0.00 0.00 1018.6
20260901123504 0 123 0.0 0.9 0.00 0.00 0.00 1018.7
20260901123114 0 123 0.0 0.9 0.00 0.00 0.00 1018.6
20260901122559 0 123 0.0 0.9 0.00 0.00 0.00 1018.7
20260901122056 0 122 0.0 0.9 0.00 0.00 0.00 1018.7
20260901121604 0 124 0.0 0.9 0.00 0.00 0.00 1018.6
20260901121056 0 123 0.0 0.9 0.00 0.00 0.00 1018.7
20260901120556 0 114 0.0 0.0 0.00 0.00 0.00 1018.6
20260901120059 0 113 0.0 0.0 0.00 0.00 0.00 1018.7
20260901115557 0 113 0.0 0.0 0.00 0.00 0.00 1018.6
20260901115052 0 113 0.0 0.0 0.00 0.00 0.00 1018.5
20260901114555 0 113 0.0 0.9 0.00 0.00 0.00 1018.5
20260901114050 0 113 0.0 0.9 0.00 0.00 0.00 1018.5
20260901113549 0 113 0.0 0.9 0.00 0.00 0.00 1018.4
20260901113056 0 116 0.0 0.9 0.00 0.00 0.00 1018.3
20260901112547 0 117 0.0 0.9 0.00 0.00 0.00 1018.1
20260901112044 0 117 0.0 0.0 0.00 0.00 0.00 1018.2
20260901111544 0 117 0.0 0.0 0.00 0.00 0.00 1018.2
20260901111041 0 117 0.0 0.0 0.00 0.00 0.00 1018.1
20260901110539 0 117 0.0 0.9 0.00 0.00 0.00 1018.1
20260901110038 0 117 0.0 0.9 0.00 0.00 0.00 1018.1
20260901105536 0 121 0.0 0.9 0.00 0.00 0.00 1018.0
20260901105037 0 121 0.0 1.7 0.00 0.00 0.00 1017.9
20260901104540 0 119 0.0 1.7 0.00 0.00 0.00 1017.9
20260901104032 0 117 0.0 0.9 0.00 0.00 0.00 1017.9
20260901103530 0 117 0.0 0.9 0.00 0.00 0.00 1017.9
20260901103031 0 108 0.0 0.0 0.00 0.00 0.00 1017.9
20260901102528 0 108 0.0 0.0 0.00 0.00 0.00 1018.0
20260901102026 0 108 0.0 0.0 0.00 0.00 0.00 1018.0
20260901101525 0 108 0.0 0.9 0.00 0.00 0.00 1018.0
20260901101023 0 108 0.0 0.9 0.00 0.00 0.00 1018.0
20260901100524 0 114 0.0 1.7 0.00 0.00 0.00 1018.0
20260901100023 0 115 0.0 1.7 0.00 0.00 0.00 1017.9
20260901095523 0 128 0.0 1.7 0.00 0.00 0.00 1017.9
20260901095022 0 127 0.0 1.7 0.00 0.00 0.00 1017.9
20260901094530 0 128 0.0 0.9 0.00 0.00 0.00 1018.0
20260901094019 0 127 0.0 0.0 0.00 0.00 0.00 1018.1
20260901093517 0 127 0.0 0.0 0.00 0.00 0.00 1018.0
20260901093016 0 127 0.0 0.9 0.00 0.00 0.00 1018.2
20260901092514 0 127 0.0 0.9 0.00 0.00 0.00 1018.1
20260901092013 0 127 0.0 0.9 0.00 0.00 0.00 1018.1
20260901091511 0 127 0.0 0.9 0.00 0.00 0.00 1018.0
20260901091011 0 113 0.0 0.9 0.00 0.00 0.00 1018.0
20260901090508 0 113 0.0 0.9 0.00 0.00 0.00 1017.8
20260901090010 0 113 0.0 0.9 0.00 0.00 0.00 1017.8
20260901085506 0 117 0.0 0.9 0.00 0.00 0.00 1017.7
20260901085005 0 122 0.0 0.0 0.00 0.00 0.00 1017.7
20260901084503 0 122 0.0 0.0 0.00 0.00 0.00 1017.8
20260901084002 0 122 0.0 0.0 0.00 0.00 0.00 1017.8
20260901083500 0 122 0.0 0.0 0.00 0.00 0.00 1017.7
20260901083100 0 122 0.0 0.9 0.00 0.00 0.00 1017.8
20260901082556 0 122 0.0 0.9 0.00 0.00 0.00 1017.9
20260901082055 0 123 0.0 0.9 0.00 0.00 0.00 1017.8
20260901081554 0 123 0.0 0.9 0.00 0.00 0.00 1017.8
20260901081055 0 122 0.0 0.9 0.00 0.00 0.00 1018.0
20260901080552 0 123 0.0 0.9 0.00 0.00 0.00 1017.9
20260901080055 0 126 0.0 0.0 0.00 0.00 0.00 1018.0
20260901075551 0 126 0.0 0.0 0.00 0.00 0.00 1018.0
20260901075050 0 126 0.0 0.9 0.00 0.00 0.00 1018.0
20260901074556 0 126 0.0 1.7 0.00 0.00 0.00 1018.1
20260901074044 0 126 0.0 1.7 0.00 0.00 0.00 1018.0
20260901073543 0 124 0.0 0.9 0.00 0.00 0.00 1018.0
20260901073041 0 124 0.0 0.9 0.00 0.00 0.00 1018.1
20260901072539 0 121 0.0 0.9 0.00 0.00 0.00 1018.0
20260901072038 0 121 0.0 0.9 0.00 0.00 0.00 1018.1
20260901071537 0 122 0.0 0.9 0.00 0.00 0.00 1018.2
20260901071035 0 123 0.0 0.0 0.00 0.00 0.00 1018.3
20260901070534 0 123 0.0 0.0 0.00 0.00 0.00 1018.4
20260901070036 0 123 0.0 0.9 0.00 0.00 0.00 1018.4
20260901065534 0 123 0.0 0.9 0.00 0.00 0.00 1018.5
20260901065032 0 124 0.0 1.7 0.00 0.00 0.00 1018.5
20260901064529 0 126 0.0 1.7 0.00 0.00 0.00 1018.4
20260901064027 0 126 0.0 0.9 0.00 0.00 0.00 1018.5
20260901063525 0 126 0.0 0.9 0.00 0.00 0.00 1018.5
20260901063025 0 126 0.0 0.9 0.00 0.00 0.00 1018.6
20260901062523 0 126 0.0 1.7 0.00 0.00 0.00 1018.6
20260901062023 0 121 0.0 1.7 0.00 0.00 0.00 1018.6
20260901061520 0 123 0.0 0.0 0.00 0.00 0.00 1018.7
20260901061018 0 123 0.0 0.0 0.00 0.00 0.00 1018.7
20260901060517 0 123 0.0 0.9 0.00 0.00 0.00 1018.8
20260901060015 0 123 0.0 1.7 0.00 0.00 0.00 1018.7
20260901055513 0 126 0.0 1.7 0.00 0.00 0.00 1018.8
20260901055012 0 127 0.0 1.7 0.00 0.00 0.00 1018.8
20260901054512 0 127 0.0 1.7 0.00 0.00 0.00 1018.9
20260901054009 0 126 0.0 0.9 0.00 0.00 0.00 1019.0
20260901053508 0 121 0.0 0.9 0.00 0.00 0.00 1019.1
20260901053107 0 121 0.0 0.9 0.00 0.00 0.00 1019.0
20260901052504 0 124 0.0 0.9 0.00 0.00 0.00 1019.0
20260901052002 0 123 0.0 0.9 0.00 0.00 0.00 1019.1
20260901051502 0 123 0.0 0.9 0.00 0.00 0.00 1019.1
20260901051100 0 124 0.0 0.9 0.00 0.00 0.00 1019.1
20260901050558 0 130 0.0 0.9 0.00 0.00 0.00 1019.1
20260901050100 0 130 0.0 0.9 0.00 0.00 0.00 1019.2
20260901045556 0 123 0.0 0.9 0.00 0.00 0.00 1019.2
20260901045055 0 125 0.0 0.9 0.00 0.00 0.00 1019.2
20260901044553 0 131 0.0 0.9 0.00 0.00 0.00 1019.2
20260901044052 0 136 0.0 1.7 0.00 0.00 0.00 1019.3
20260901043550 0 135 0.0 1.7 0.00 0.00 0.00 1019.3
20260901043054 0 140 0.0 0.9 0.00 0.00 0.00 1019.3
20260901042550 0 142 0.0 0.9 0.00 0.00 0.00 1019.3
20260901042045 0 132 0.0 0.9 0.00 0.00 0.00 1019.3
20260901041544 0 126 0.0 0.9 0.00 0.00 0.00 1019.2
20260901041042 0 123 0.0 1.7 0.00 0.00 0.00 1019.1
20260901040544 0 132 0.0 1.7 0.00 0.00 0.00 1019.1
20260901040040 0 130 0.9 1.7 0.00 0.00 0.00 1019.1
20260901035542 0 128 0.0 0.9 0.00 0.00 0.00 1019.1
20260901035040 0 125 0.0 1.7 0.00 0.00 0.00 1019.1
20260901034542 0 132 0.0 1.7 0.00 0.00 0.00 1019.1
20260901034039 0 137 0.9 1.7 0.00 0.00 0.00 1019.2
20260901033539 0 126 0.0 1.7 0.00 0.00 0.00 1019.1
20260901033102 0 126 0.0 1.7 0.00 0.00 0.00 1019.1
20260901032539 0 128 0.9 1.7 0.00 0.00 0.00 1019.0
20260901032038 0 109 0.9 1.7 0.00 0.00 0.00 1019.1
20260901031541 0 128 0.9 1.7 0.00 0.00 0.00 1019.0
20260901031037 0 122 0.9 1.7 0.00 0.00 0.00 1019.1
20260901030640 0 134 0.0 1.7 0.00 0.00 0.00 1019.1
20260901030039 0 134 0.0 2.6 0.00 0.00 0.00 1019.2
20260901025537 0 123 0.9 2.6 0.00 0.00 0.00 1019.0
20260901025037 0 121 0.9 1.7 0.00 0.00 0.00 1019.1
20260901024540 0 119 0.9 2.6 0.00 0.00 0.00 1019.0
20260901024037 0 132 0.9 1.7 0.00 0.00 0.00 1019.1
20260901023537 0 130 0.0 0.9 0.00 0.00 0.00 1019.1
20260901023043 0 130 0.0 1.7 0.00 0.00 0.00 1019.1
20260901022535 0 111 0.0 1.7 0.00 0.00 0.00 1019.1
20260901022035 0 131 0.9 1.7 0.00 0.00 0.00 1019.1
20260901021546 0 127 0.9 1.7 0.00 0.00 0.00 1019.2
20260901021035 0 120 0.9 1.7 0.00 0.00 0.00 1019.1
20260901020535 0 121 0.0 0.9 0.00 0.00 0.00 1019.2
20260901020040 0 121 0.0 1.7 0.00 0.00 0.00 1019.3
20260901015534 0 126 0.0 1.7 0.00 0.00 0.00 1019.2
20260901015034 0 132 0.0 1.7 0.00 0.00 0.00 1019.1
20260901014537 0 121 0.0 0.9 0.00 0.00 0.00 1019.1
20260901014034 0 95 0.0 1.7 0.00 0.00 0.00 1019.0
20260901013534 0 111 0.0 1.7 0.00 0.00 0.00 1018.9
20260901013039 0 157 0.0 1.7 0.00 0.00 0.00 1018.9
20260901012532 0 157 0.0 1.7 0.00 0.00 0.00 1019.1
20260901012033 0 132 0.9 2.6 0.00 0.00 0.00 1018.9
20260901011535 0 117 0.0 2.6 0.00 0.00 0.00 1018.9
20260901011033 0 126 0.9 1.7 0.00 0.00 0.00 1018.8
20260901010533 0 118 0.0 1.7 0.00 0.00 0.00 1018.7
20260901010036 0 97 0.0 1.7 0.00 0.00 0.00 1018.7
20260901005532 0 107 0.0 1.7 0.00 0.00 0.00 1018.7
20260901005032 0 109 0.0 1.7 0.00 0.00 0.00 1018.9
20260901004532 0 109 0.0 1.7 0.00 0.00 0.00 1018.9
20260901004032 0 126 0.9 1.7 0.00 0.00 0.00 1018.9
20260901003532 0 125 0.9 1.7 0.00 0.00 0.00 1018.8
20260901003036 0 120 0.0 0.9 0.00 0.00 0.00 1018.8
20260901002532 0 126 0.0 1.7 0.00 0.00 0.00 1018.8
20260901002031 0 120 0.0 1.7 0.00 0.00 0.00 1018.8
20260901001541 0 117 0.0 0.9 0.00 0.00 0.00 1018.7
20260901001030 0 136 0.0 1.7 0.00 0.00 0.00 1018.6
20260901000531 0 105 0.0 2.6 0.00 0.00 0.00 1018.5
20260901000031 0 99 0.0 2.6 0.00 0.00 0.00 1018.4
20260831235534 0 126 0.0 0.9 0.00 0.00 0.00 1018.4
20260831235030 0 108 0.0 0.9 0.00 0.00 0.00 1018.3
20260831234531 0 111 0.0 0.9 0.00 0.00 0.00 1018.3
20260831234030 0 112 0.0 1.7 0.00 0.00 0.00 1018.4
20260831233530 0 82 0.0 1.7 0.00 0.00 0.00 1018.2
20260831233030 0 101 0.0 0.9 0.00 0.00 0.00 1018.3
20260831232530 0 111 0.0 0.9 0.00 0.00 0.00 1018.3
20260831232029 0 109 0.0 0.9 0.00 0.00 0.00 1018.3
20260831231529 0 113 0.0 0.9 0.00 0.00 0.00 1018.2
20260831231029 0 113 0.0 0.9 0.00 0.00 0.00 1018.2
20260831230533 0 102 0.0 0.9 0.00 0.00 0.00 1018.1
20260831230029 0 94 0.0 0.9 0.00 0.00 0.00 1018.0
20260831225533 0 109 0.0 0.9 0.00 0.00 0.00 1018.0
20260831225029 0 45 0.0 0.9 0.00 0.00 0.00 1017.9
20260831224528 0 88 0.0 0.9 0.00 0.00 0.00 1017.9
20260831224028 0 110 0.0 1.7 0.00 0.00 0.00 1017.9
20260831223529 0 133 0.0 1.7 0.00 0.00 0.00 1018.0
20260831223027 0 45 0.0 1.7 0.00 0.00 0.00 1017.9
20260831222527 0 92 0.0 1.7 0.00 0.00 0.00 1018.1
20260831222026 0 115 0.0 0.9 0.00 0.00 0.00 1018.1
20260831221534 0 109 0.0 1.7 0.00 0.00 0.00 1018.2
20260831221026 0 55 0.9 2.6 0.00 0.00 0.00 1018.1
20260831220526 0 53 0.0 2.6 0.00 0.00 0.00 1018.0
20260831220026 0 17 0.0 1.7 0.00 0.00 0.00 1018.1
20260831215524 0 360 0.0 1.7 0.00 0.00 0.00 1017.9
20260831215026 0 130 0.0 1.7 0.00 0.00 0.00 1017.9
20260831214522 0 101 0.0 1.7 0.00 0.00 0.00 1017.9
20260831214020 0 31 0.0 2.6 0.00 0.00 0.00 1017.9
20260831213519 0 117 0.0 2.6 0.00 0.00 0.00 1017.9
20260831213019 0 13 0.9 1.7 0.00 0.00 0.00 1017.9
20260831212519 0 95 0.0 1.7 0.00 0.00 0.00 1018.0
20260831212019 0 147 0.0 1.7 0.00 0.00 0.00 1018.1
20260831211518 0 139 0.0 1.7 0.00 0.00 0.00 1018.1
20260831211015 0 139 0.0 1.7 0.00 0.00 0.00 1018.0
20260831210514 0 113 0.0 1.7 0.00 0.00 0.00 1018.1
20260831210013 0 74 0.0 1.7 0.00 0.00 0.00 1017.9
20260831205511 0 65 0.0 1.7 0.00 0.00 0.00 1018.1
20260831205009 0 50 0.0 1.7 0.00 0.00 0.00 1018.0
20260831204510 0 14 0.0 1.7 0.00 0.00 0.00 1017.9
20260831204007 0 360 0.0 2.6 0.00 0.00 0.00 1018.1
20260831203505 0 107 0.9 2.6 0.00 0.00 0.00 1018.0
20260831203007 0 342 0.0 1.7 0.00 0.00 0.00 1018.1
20260831202502 0 169 0.0 1.7 0.00 0.00 0.00 1018.0
20260831202002 0 22 0.0 1.7 0.00 0.00 0.00 1018.0
20260831201600 0 114 0.0 1.7 0.00 0.00 0.00 1018.2
20260831201058 0 190 0.9 1.7 0.00 0.00 0.00 1018.1
20260831200557 0 91 0.0 1.7 0.00 0.00 0.00 1018.1
20260831200058 0 132 0.0 2.6 0.00 0.00 0.00 1018.2
20260831195553 0 36 0.9 2.6 0.00 0.00 0.00 1018.2
20260831195052 0 24 0.9 1.7 0.00 0.00 0.00 1018.2
20260831194612 0 132 0.9 2.6 0.00 0.00 0.00 1018.2
20260831194050 0 355 0.9 2.6 0.00 0.00 0.00 1018.3
20260831193547 0 153 0.9 2.6 0.00 0.00 0.00 1018.2
20260831193052 0 115 0.0 1.7 0.00 0.00 0.00 1018.3
20260831192545 0 111 0.0 2.6 0.00 0.00 0.00 1018.3
20260831192044 0 351 0.0 2.6 0.00 0.00 0.00 1018.4
20260831191542 0 5 0.0 1.7 0.00 0.00 0.00 1018.4
20260831191044 0 186 0.0 2.6 0.00 0.00 0.00 1018.4
20260831190541 0 36 0.9 2.6 0.00 0.00 0.00 1018.4
20260831190104 0 101 0.9 2.6 0.00 0.00 0.00 1018.5
20260831185538 0 24 0.9 2.6 0.00 0.00 0.00 1018.6
20260831185036 0 94 0.0 1.7 0.00 0.00 0.00 1018.6
20260831184534 0 342 0.9 2.6 0.00 0.00 0.00 1018.7
20260831184035 0 44 0.9 2.6 0.00 0.00 0.00 1018.6
20260831183530 0 169 0.0 1.7 0.00 0.00 0.00 1018.7
20260831183031 0 5 0.0 1.7 0.00 0.00 0.00 1018.7
20260831182528 0 355 0.9 1.7 0.00 0.00 0.00 1018.8
20260831182027 0 110 0.0 2.6 0.00 0.00 0.00 1018.9
20260831181527 0 332 0.9 3.5 0.00 0.00 0.00 1018.9
20260831181023 0 69 1.7 3.5 0.00 0.00 0.00 1019.0
20260831180521 0 78 0.0 2.6 0.00 0.00 0.00 1019.1
20260831180021 0 100 0.0 2.6 0.00 0.00 0.00 1019.1
20260831175518 0 76 0.9 1.7 0.00 0.00 0.00 1019.2
20260831175018 0 360 0.9 2.6 0.00 0.00 0.00 1019.3
20260831174516 0 71 0.9 2.6 0.00 0.00 0.00 1019.3
20260831174015 0 53 0.0 1.7 0.00 0.00 0.00 1019.3
20260831173516 0 26 0.9 2.6 0.00 0.00 0.00 1019.4
20260831173012 0 94 0.0 1.7 0.00 0.00 0.00 1019.4
20260831172510 0 111 0.0 1.7 0.00 0.00 0.00 1019.4
20260831172009 0 143 0.0 2.6 0.00 0.00 0.00 1019.4
20260831171508 0 123 0.9 2.6 0.00 0.00 0.00 1019.4
20260831171006 0 129 0.0 2.6 0.00 0.00 0.00 1019.4
20260831170505 0 109 0.9 2.6 0.00 0.00 0.00 1019.4
20260831170006 0 342 0.0 2.6 0.00 0.00 0.00 1019.4
20260831165504 0 36 0.9 2.6 0.00 0.00 0.00 1019.4
20260831165059 0 78 0.0 1.7 0.00 0.00 0.00 1019.6
20260831164559 0 360 0.0 2.6 0.00 0.00 0.00 1019.6
20260831164100 0 123 0.9 2.6 0.00 0.00 0.00 1019.6
20260831163555 0 355 0.0 1.7 0.00 0.00 0.00 1019.8
20260831163054 0 119 0.0 2.6 0.00 0.00 0.00 1019.7
20260831162556 0 120 0.0 2.6 0.00 0.00 0.00 1019.8
20260831162051 0 157 0.0 1.7 0.00 0.00 0.00 1019.9
20260831161550 0 67 0.0 1.7 0.00 0.00 0.00 1019.8
20260831161048 0 119 0.9 1.7 0.00 0.00 0.00 1019.9
20260831160546 0 146 0.0 1.7 0.00 0.00 0.00 1019.9
20260831160045 0 144 0.0 1.7 0.00 0.00 0.00 1019.8
20260831155545 0 126 0.0 1.7 0.00 0.00 0.00 1019.9
20260831155042 0 126 0.0 1.7 0.00 0.00 0.00 1020.1
20260831154544 0 118 0.0 1.7 0.00 0.00 0.00 1020.1
20260831154039 0 114 0.0 1.7 0.00 0.00 0.00 1020.2
20260831153541 0 114 0.0 2.6 0.00 0.00 0.00 1020.1
20260831153045 0 113 0.0 2.6 0.00 0.00 0.00 1020.1
20260831152535 0 140 0.0 0.9 0.00 0.00 0.00 1020.1
20260831152033 0 123 0.0 1.7 0.00 0.00 0.00 1020.1
20260831151540 0 123 0.0 1.7 0.00 0.00 0.00 1020.1
20260831151030 0 144 0.0 1.7 0.00 0.00 0.00 1020.1
20260831150530 0 141 0.0 1.7 0.00 0.00 0.00 1020.1
20260831150028 0 140 0.0 1.7 0.00 0.00 0.00 1020.1
20260831145526 0 141 0.0 1.7 0.00 0.00 0.00 1020.1
20260831145027 0 149 0.0 1.7 0.00 0.00 0.00 1020.3
20260831144522 0 122 0.0 0.9 0.00 0.00 0.00 1020.3
20260831144022 0 121 0.0 0.0 0.00 0.00 0.00 1020.1
20260831143521 0 121 0.0 0.9 0.00 0.00 0.00 1020.3
20260831143019 0 121 0.0 0.9 0.00 0.00 0.00 1020.1
20260831142517 0 119 0.0 0.9 0.00 0.00 0.00 1020.2
20260831142016 0 65 0.0 1.7 0.00 0.00 0.00 1020.1
20260831141514 0 43 0.0 1.7 0.00 0.00 0.00 1020.2
20260831141014 0 37 0.0 1.7 0.00 0.00 0.00 1020.1
20260831140511 0 43 0.0 1.7 0.00 0.00 0.00 1020.3
20260831140010 0 35 0.0 2.6 0.00 0.00 0.00 1020.3